Leadville, CO

5:30 PM MST on November 20, 2019 (GMT -0700)
Lake County

Weather History for KLXV - September, 2019

Change the Weather History Date:

Tuesday, September 10, 2019

  Actual Average Record
Temperature  
Mean Temperature 48 °F -  
Max Temperature 67 °F 63 °F 73 °F (1984)
Min Temperature 28 °F 32 °F 26 °F (1992)
Degree Days  
Heating Degree Days 17 18  
Month to date heating degree days 107 163  
Since 1 July heating degree days 700 885  
Cooling Degree Days 0 0  
Month to date cooling degree days 0 0  
Year to date cooling degree days 0 0  
Moisture  
Dew Point 27 °F    
Average Humidity 52    
Maximum Humidity 85    
Minimum Humidity 18    
Precipitation  
Precipitation 0.00 in 0.03 in 0.26 in (2002)
Month to date precipitation 0.31 0.43  
Year to date precipitation 12.85 9.38  
Sea Level Pressure  
Sea Level Pressure 30.04 in    
Wind  
Wind Speed 8 mph (South)    
Max Wind Speed 25 mph    
Max Gust Speed 33 mph    
Visibility 6 miles    
Events      
T = Trace of Precipitation, MM = Missing Value Source: NWS Daily Summary

Daily Weather History Graph

Daily Weather History Graph

Search for Another Location

Airport or City:

Astronomy

Sep. 10, 2019 Rise Set
Actual Time 6:41 AM MDT 7:21 PM MDT
Civil Twilight 6:14 AM MDT 7:48 PM MDT
Nautical Twilight 5:42 AM MDT 8:20 PM MDT
Astronomical Twilight 5:09 AM MDT 8:53 PM MDT
Moon 5:58 PM MDT (9/10) 3:12 AM MDT (9/10)
Length of Visible Light 13h 34m
Length of Day
12h 40m
Waxing Gibbous, 90% of the Moon is Illuminated
Sep 10
Waxing Gibbous
Sep 13
Full
Sep 21
Last Quarter
Sep 28
New
Oct 5
First Quarter

Hourly Weather History & Observations

Time (MDT) Temp. Windchill Dew Point Humidity Pressure Visibility Wind Dir Wind Speed Gust Speed Precip Events Conditions
12:53 AM 41.0 °F - 27.0 °F 57% 29.85 in 10.0 mi Calm Calm - N/A   Clear
1:53 AM 35.1 °F - 26.1 °F 70% 29.88 in 10.0 mi Calm Calm - N/A   Clear
2:53 AM 35.1 °F 32.2 °F 26.1 °F 70% 29.86 in 10.0 mi SE 3.5 mph - N/A   Clear
3:53 AM 34.0 °F 29.8 °F 26.1 °F 73% 29.86 in 10.0 mi NE 4.6 mph - N/A   Clear
4:53 AM 34.0 °F - 27.0 °F 75% 29.86 in 10.0 mi Calm Calm - N/A   Clear
5:53 AM 34.0 °F 28.0 °F 25.0 °F 70% 29.87 in 10.0 mi NE 6.9 mph - N/A   Clear
6:53 AM 28.0 °F 24.2 °F 24.1 °F 85% 29.94 in 10.0 mi East 3.5 mph - N/A   Clear
7:27 AM 33.1 °F - 26.1 °F 75% 30.31 in 2.5 mi Calm Calm - N/A   Haze
7:34 AM 34.0 °F 31.0 °F 27.0 °F 75% 30.31 in 10.0 mi East 3.5 mph - N/A   Clear
7:53 AM 37.9 °F - 27.0 °F 65% 29.93 in 10.0 mi Calm Calm - N/A   Clear
8:53 AM 48.9 °F - 28.9 °F 46% 29.90 in 10.0 mi Variable 3.5 mph - N/A   Clear
9:42 AM 52.0 °F - 30.0 °F 43% 30.30 in 1.8 mi South 5.8 mph - N/A   Haze
9:49 AM 51.8 °F - 28.4 °F 41% 30.30 in 5.0 mi South 3.5 mph - N/A   Haze
9:51 AM 53.6 °F - 28.4 °F 38% 30.30 in 2.5 mi South 4.6 mph - N/A   Haze
9:53 AM 53.1 °F - 28.0 °F 38% 29.87 in 1.8 mi South 4.6 mph - N/A   Haze
10:01 AM 53.1 °F - 28.0 °F 38% 30.30 in 3.0 mi SSW 6.9 mph - N/A   Haze
10:35 AM 59.0 °F - 30.0 °F 33% 30.29 in 2.0 mi South 12.7 mph 16.1 mph N/A   Haze
10:44 AM 59.0 °F - 28.9 °F 32% 30.28 in 4.0 mi South 17.3 mph 24.2 mph N/A   Haze
10:53 AM 59.0 °F - 28.9 °F 32% 29.84 in 5.0 mi South 16.1 mph 23.0 mph N/A   Haze
11:29 AM 61.0 °F - 28.0 °F 29% 30.27 in 2.0 mi SSW 16.1 mph 28.8 mph N/A   Haze
11:37 AM 62.1 °F - 28.0 °F 28% 30.28 in 3.0 mi SSW 17.3 mph 31.1 mph N/A   Haze
11:53 AM 62.1 °F - 28.0 °F 28% 29.84 in 5.0 mi South 15.0 mph 29.9 mph N/A   Haze
12:26 PM 62.1 °F - 27.0 °F 26% 30.27 in 2.5 mi South 19.6 mph 33.4 mph N/A   Haze
12:33 PM 62.6 °F - 26.6 °F 26% 30.27 in 6.0 mi South 15.0 mph 27.6 mph N/A   Haze
12:53 PM 63.0 °F - 26.1 °F 25% 29.80 in 7.0 mi South 16.1 mph 26.5 mph N/A   Mostly Cloudy
1:14 PM 62.1 °F - 25.0 °F 24% 30.27 in 2.0 mi South 12.7 mph 31.1 mph N/A   Haze
1:32 PM 62.1 °F - 25.0 °F 24% 30.26 in 7.0 mi SW 9.2 mph 18.4 mph N/A   Mostly Cloudy
1:53 PM 64.0 °F - 27.0 °F 25% 29.81 in 3.0 mi South 16.1 mph 25.3 mph N/A   Haze
2:46 PM 64.0 °F - 23.0 °F 21% 30.24 in 2.0 mi South 12.7 mph 26.5 mph N/A   Haze
2:53 PM 64.0 °F - 21.9 °F 20% 29.80 in 1.8 mi South 13.8 mph 25.3 mph N/A   Haze
3:08 PM 63.0 °F - 21.9 °F 21% 30.24 in 2.5 mi South 16.1 mph 23.0 mph N/A   Haze
3:16 PM 64.9 °F - 23.0 °F 20% 30.24 in 6.0 mi SSW 17.3 mph 24.2 mph N/A   Haze
3:53 PM 66.0 °F - 21.0 °F 18% 29.79 in 2.5 mi SW 15.0 mph 29.9 mph N/A   Haze
4:00 PM 66.9 °F - 21.9 °F 18% 30.24 in 6.0 mi SSW 11.5 mph 24.2 mph N/A   Haze
4:30 PM 63.0 °F - 21.0 °F 20% 30.24 in 1.8 mi South 5.8 mph - N/A   Haze
4:39 PM 63.0 °F - 21.9 °F 21% 30.24 in 3.0 mi SW 10.4 mph - N/A   Haze
4:53 PM 63.0 °F - 21.9 °F 21% 29.81 in 10.0 mi South 11.5 mph - N/A   Overcast
5:53 PM 61.0 °F - 23.0 °F 23% 29.84 in 10.0 mi SW 13.8 mph 23.0 mph N/A   Overcast
6:53 PM 57.0 °F - 30.0 °F 36% 29.90 in 10.0 mi NW 9.2 mph - N/A   Scattered Clouds
7:53 PM 53.1 °F - 33.1 °F 47% 29.88 in 10.0 mi ENE 4.6 mph - N/A   Mostly Cloudy
8:53 PM 53.1 °F - 32.0 °F 45% 29.83 in 10.0 mi Calm Calm - N/A   Overcast
9:53 PM 50.0 °F - 35.1 °F 57% 29.87 in 10.0 mi SSE 9.2 mph - N/A   Mostly Cloudy
10:53 PM 48.0 °F - 34.0 °F 58% 29.83 in 10.0 mi South 6.9 mph - N/A   Mostly Cloudy
11:53 PM 46.9 °F - 35.1 °F 63% 29.82 in 10.0 mi SSE 6.9 mph - N/A   Scattered Clouds